STARLINK-32584, 62179

Orbit data source: Space-Track

STARLINK-32584, 62179 is a payload satellite owned by SpaceX/Seattle (US) in LEO that was launched on Sat, 30 Nov 2024 UTC via an FALCON 9 launch vehicle from the Air Force Western Test Range (AFWTR). Payload-class satellites include a variety of spacecraft equipped with specific instruments for various scientific and technological missions. These include communications satellites like Starlink; space stations such as the ISS; scientific satellites like the Hubble; Earth observation satellites from companies like Planet Labs, Umbra, and HawkEye 360; GPS; miniature CubeSats for education and research; and military/defense satellites.

Loading next visibility...
Identifier
62179, 2024-225S
Orbit
LEO
Country
Flag of USUS
Related business
Manufacturer
SpaceX/Seattle
Mission
Operational Commercial Communications
Bus & Motor
STARLINK V2M, Unknown motor
Mass
730 kg wet, ~700 kg dry
Launch date (UTC)
2024-11-30 (1 year ago)
Launch vehicle
FALCON 9
Launch site
Air Force Western Test Range (AFWTR)
Object type
Payload
Rocket body
Debris
Shape & HBR
Box + 2 Pan, 17.7 m
Radar Cross Section
33.884 m², Large (>1 m²)

Expand to show TLE details & history
Last TLE update: 14 hours ago

TLE from 14 hours ago
0 STARLINK-32584
1 62179U 24225S   26062.73550694  .00012582  00000-0  10600-2 0  9992
2 62179  70.0031 179.3820 0003220 268.8294  91.2496 14.98344376 68985
Epoch: 2026-03-03T17:39Z
TLE epoch observation values (Epoch: 2026-03-03T17:39:07.799Z)
Latitude
-0.00005°
Longitude
113.08919°
Altitude
574.485 km
Speed
7.574 km/s
True Right ascension
11h 57m 31s
True Declination
0° 00' 00"
Sunlit
Object was in full shadow at epoch
Visualization orbit readout
Latitude
Unknown
Longitude
Unknown
Altitude
Unknown
Speed
Unknown
Apparent Right ascension
Unknown
Apparent Declination
Unknown
Sunlit
N/A
Visualization observer readout
Local Sidereal Time
11:19:42
Azimuth
Unknown
Elevation
Unknown
Doppler factor
Unknown
Orbital elements
Apogee altitude
572.197 km
Perigee altitude
567.722 km
Semi-major axis
6,948.096 km
Eccentricity
0.00032
Inclination
70.0031°
RAAN
179.382°
Arg. of periapsis
268.8294°
True anomaly
91.28649°
Mean anomaly
91.2496°
Eccentric anomaly
91.26804°
Mean motion
3.74752 °/min
Orbital period
96.06 mins
BSTAR
0.00106
Loading maneuver chart data...
Computing Atmospheric mass density...
Loading historical data...
Loading historical data...
Loading historical data...
Loading historical data...
Loading historical data...
Loading historical data...
Loading historical data...

Documentation

Showing up to 5 results
|